Weather History for KGLH - April, 2013

Change the Weather History Date:

Thursday, April 25, 2013

  Actual Average Record
Temperature  
Mean Temperature 53 °F 66 °F  
Max Temperature 68 °F 77 °F 91 °F (1965)
Min Temperature 37 °F 56 °F 37 °F (2013)
Degree Days  
Heating Degree Days 12 2  
Month to date heating degree days 161 109  
Since 1 July heating degree days 2639 2754  
Cooling Degree Days 0 3  
Month to date cooling degree days 58 45  
Year to date cooling degree days 70 67  
Growing Degree Days 2 (Base 50)    
Moisture  
Dew Point 42 °F    
Average Humidity 71    
Maximum Humidity 100    
Minimum Humidity 42    
Precipitation  
Precipitation 0.00 in 0.15 in 4.50 in (1958)
Month to date precipitation 3.45 4.11  
Year to date precipitation 20.66 18.65  
Sea Level Pressure  
Sea Level Pressure 30.35 in    
Wind  
Wind Speed 6 mph (NE)    
Max Wind Speed 15 mph    
Max Gust Speed 20 mph    
Visibility 8 miles    
Events      
T = Trace of Precipitation, MM = Missing Value Source: NWS Daily Summary

Daily Weather History Graph

Daily Weather History Graph

Search for Another Location

Airport or City:

Trip Planner

Search our weather history database for the weather conditions in past years. The results will help you decide how hot, cold, wet, or windy it might be!

Date:

Astronomy

Apr. 25, 2013 Rise Set
Actual Time 6:21 AM CDT 7:42 PM CDT
Civil Twilight 5:55 AM CDT 8:08 PM CDT
Nautical Twilight 5:24 AM CDT 8:39 PM CDT
Astronomical Twilight 4:51 AM CDT 9:12 PM CDT
Moon 7:54 PM CDT 6:04 AM CDT
Length of Visible Light 14h 13m
Length of Day
13h 20m
Full, 100% of the Moon is Illuminated
Apr 25
Full
Apr 25
Full
May 2
Last Quarter
May 9
New
May 17
First Quarter

Hourly Weather History & Observations

Time (CDT) Temp. Windchill Dew Point Humidity Pressure Visibility Wind Dir Wind Speed Gust Speed Precip Events Conditions
12:53 AM 45.0 °F 43.5 °F 42.1 °F 90% 30.32 in 10.0 mi NNE 3.5 mph - N/A   Clear
1:53 AM 41.0 °F - 39.9 °F 96% 30.32 in 9.0 mi Calm Calm - N/A   Clear
2:53 AM 41.0 °F 38.0 °F 39.9 °F 96% 30.32 in 10.0 mi NE 4.6 mph - N/A   Clear
3:53 AM 42.1 °F 39.2 °F 39.9 °F 92% 30.32 in 10.0 mi NE 4.6 mph - N/A   Clear
4:53 AM 42.1 °F - 39.0 °F 89% 30.34 in 10.0 mi Calm Calm - N/A   Clear
5:53 AM 39.9 °F - 39.9 °F 100% 30.36 in 2.5 mi Calm Calm - N/A   Clear
6:01 AM 39.2 °F 37.0 °F 37.4 °F 93% 30.34 in 5.0 mi NNE 3.5 mph - N/A   Clear
6:24 AM 37.4 °F - 35.6 °F 93% 30.34 in 2.0 mi Calm Calm - N/A   Clear
6:45 AM 39.2 °F - 37.4 °F 93% 30.35 in 1.0 mi Calm Calm - N/A   Clear
6:53 AM 39.0 °F 36.8 °F 39.0 °F 100% 30.38 in 2.0 mi North 3.5 mph - N/A   Clear
7:06 AM 41.0 °F 38.0 °F 39.2 °F 93% 30.36 in 4.0 mi North 4.6 mph - N/A   Clear
7:53 AM 48.0 °F - 44.1 °F 86% 30.39 in 10.0 mi NE 4.6 mph - N/A   Clear
8:53 AM 51.1 °F - 43.0 °F 74% 30.41 in 10.0 mi ENE 5.8 mph - N/A   Clear
9:53 AM 55.0 °F - 43.0 °F 64% 30.41 in 10.0 mi ENE 8.1 mph - N/A   Clear
10:53 AM 57.9 °F - 42.1 °F 56% 30.42 in 10.0 mi NE 9.2 mph - N/A   Clear
11:53 AM 60.1 °F - 42.1 °F 51% 30.41 in 10.0 mi ENE 9.2 mph 18.4 mph N/A   Clear
12:53 PM 62.1 °F - 42.1 °F 48% 30.40 in 10.0 mi NE 9.2 mph 17.3 mph N/A   Clear
1:53 PM 64.0 °F - 43.0 °F 46% 30.38 in 10.0 mi ENE 9.2 mph - N/A   Clear
2:53 PM 64.9 °F - 42.1 °F 43% 30.37 in 10.0 mi Variable 5.8 mph - N/A   Clear
3:53 PM 66.9 °F - 44.1 °F 44% 30.34 in 10.0 mi East 9.2 mph - N/A   Clear
4:53 PM 66.9 °F - 43.0 °F 42% 30.32 in 10.0 mi ENE 9.2 mph - N/A   Clear
5:53 PM 66.9 °F - 42.1 °F 40% 30.33 in 10.0 mi ENE 9.2 mph - N/A   Clear
6:53 PM 64.9 °F - 46.0 °F 50% 30.32 in 10.0 mi ENE 4.6 mph - N/A   Clear
7:53 PM 57.0 °F - 46.0 °F 67% 30.32 in 10.0 mi ESE 3.5 mph - N/A   Clear
8:53 PM 54.0 °F - 46.0 °F 75% 30.32 in 10.0 mi NE 3.5 mph - N/A   Clear
9:53 PM 52.0 °F - 46.0 °F 80% 30.33 in 10.0 mi ENE 4.6 mph - N/A   Clear
10:53 PM 55.0 °F - 43.0 °F 64% 30.32 in 10.0 mi East 5.8 mph - N/A   Clear
11:53 PM 54.0 °F - 43.0 °F 66% 30.32 in 10.0 mi ESE 4.6 mph - N/A   Clear